Share it

Your are here: Home // // China Hardware Solution (Pictures)

China Hardware Solution (Pictures)


06300chargingnorespo..> 19-Mar-2011 00:48 36K
06300chinanotchargin..> 19-Mar-2011 00:48 50K
0RepairtipforCharger..> 19-Mar-2011 00:54 20K
1 (1).jpg 19-Mar-2011 00:54 55K
1 (2).jpg 19-Mar-2011 00:54 21K
1 (3).jpg 19-Mar-2011 00:55 48K
1 (4).jpg 19-Mar-2011 00:55 28K
1 (5).jpg 19-Mar-2011 00:55 39K
1.jpg 19-Mar-2011 00:55 45K
13.jpg 19-Mar-2011 00:47 41K
1gfivef2batterylowso..> 19-Mar-2011 00:55 23K
2 (1).jpg 19-Mar-2011 00:55 38K
2 (2).jpg 19-Mar-2011 00:55 37K
2.jpg 19-Mar-2011 00:47 53K
20100723155626.jpg 19-Mar-2011 00:48 39K
23sbu2x.jpg 19-Mar-2011 00:47 105K
3 (1).jpg 19-Mar-2011 00:47 25K
3 (2).jpg 19-Mar-2011 00:47 46K
3.jpg 19-Mar-2011 00:47 43K
49180375.jpg 19-Mar-2011 00:48 43K
5310 china camera pr..> 19-Mar-2011 00:47 59K
5310 china camera pr..> 19-Mar-2011 00:47 52K
5310 hang camera don..> 19-Mar-2011 00:48 27K
5310 hang camera don..> 19-Mar-2011 00:47 31K
5310 hang camera don..> 19-Mar-2011 00:47 33K
5310 hang camera don..> 19-Mar-2011 00:48 28K
5310ringsolution.jpg 19-Mar-2011 00:48 210K
600wr74.jpg 19-Mar-2011 00:47 96K
606wj49.jpg 19-Mar-2011 00:47 128K
6300_china_Invalid_c..> 19-Mar-2011 00:48 38K
6300chargingnorespon..> 19-Mar-2011 00:48 36K
6300chinainvalidchar..> 19-Mar-2011 00:48 32K
6300chinanotcharging..> 19-Mar-2011 00:48 50K
6300j.jpg 19-Mar-2011 00:48 1.3M
6300restard.jpg 19-Mar-2011 00:48 104K
6300restard.jpg0.jpg 19-Mar-2011 00:48 104K
6300whiteescreen_1.jpg 19-Mar-2011 00:48 31K
6300whiteescreen_2.jpg 19-Mar-2011 00:48 44K
7700 Low Battery.JPG 19-Mar-2011 00:48 94K
9.jpg 19-Mar-2011 00:47 62K
A200 ToRCH KEY SOLUT..> 19-Mar-2011 00:49 164K
Alfatel H2 Chaging S..> 19-Mar-2011 00:49 302K
Any china phone sky ..> 19-Mar-2011 00:49 30K
CHINA NOKIA 8GB Char..> 19-Mar-2011 00:50 36K
CHINA Phone KXG N-20..> 19-Mar-2011 00:50 30K
CHINA RINGER IC ALTE..> 19-Mar-2011 00:50 62K
CHINA ztc 6120 Charg..> 19-Mar-2011 00:50 36K
China A200 Mic Micro..> 19-Mar-2011 00:50 111K
China Nokia 2700 Cha..> 19-Mar-2011 00:50 281K
China Nokia 6300d MI..> 19-Mar-2011 00:50 31K
China Nokia N-73 Joy..> 19-Mar-2011 00:50 36K
China phone KZG N200..> 19-Mar-2011 00:50 281K
China_6300_Sim_Way1.jpg 19-Mar-2011 00:50 38K
Dual Sim IC Repair. ..> 19-Mar-2011 00:51 32K
Dual Sim IC Repair. ..> 19-Mar-2011 00:51 73K
E-Tel M77 A.jpg 19-Mar-2011 00:51 29K
Egl Tel v100 Chargin..> 19-Mar-2011 00:51 39K
Flash ok no power.jpg 19-Mar-2011 00:51 98K
G TIDE G19 Charging ..> 19-Mar-2011 00:51 36K
G'FIVE U808 headphon..> 19-Mar-2011 00:51 132K
Hantel Power ways.jpg 19-Mar-2011 00:51 40K
Headphone Short.jpg 19-Mar-2011 00:51 40K
IMG0826A.jpg 19-Mar-2011 00:52 54K
MAJOR_REPAIR_NO_POWE..> 19-Mar-2011 00:52 66K
MTK low electricity.jpg 19-Mar-2011 00:52 55K
MTKBootrequestwyas.jpg 19-Mar-2011 00:52 22K
MYSIMPHONYS90_Had ph..> 19-Mar-2011 00:52 54K
NEW SOLUTION zt588,c..> 19-Mar-2011 00:52 27K
NIKTEL C,8000 INSERT..> 19-Mar-2011 00:52 47K
NKTEL MICE WAY_STBSL..> 19-Mar-2011 00:52 107K
One Auto Key Working..> 19-Mar-2011 00:53 33K
Pinconnectionsimjack..> 19-Mar-2011 00:53 28K
Repair Batt temp hig..> 19-Mar-2011 00:53 31K
Repair Display Probl..> 19-Mar-2011 00:53 52K
Repair Display Probl..> 19-Mar-2011 00:53 63K
Repair Display Probl..> 19-Mar-2011 00:53 146K
RepairtipforChargers..> 19-Mar-2011 00:53 20K
Reset+Circuit.JPG 19-Mar-2011 00:53 20K
S2_headset_reapire.jpg 19-Mar-2011 00:53 24K
SIGMATEL v668 HEADSE..> 19-Mar-2011 00:53 15K
SIGMATELv668HEADSETP..> 19-Mar-2011 00:54 17K
T99 LOW BATTERY SHUT..> 19-Mar-2011 00:54 23K
alfatelh100chargings..> 19-Mar-2011 00:49 301K
alfatelh1simway.png 19-Mar-2011 00:49 336K
alfatelh2chagingsolu..> 19-Mar-2011 00:49 302K
all20china20mobiles2..> 19-Mar-2011 00:49 90K
all20china20repairin..> 19-Mar-2011 00:49 113K
anwar.png 19-Mar-2011 00:49 1.3M
asd15.jpg 19-Mar-2011 00:49 77K
baterelowsolusi.jpg 19-Mar-2011 00:49 12K
cectc1000dualsimicsh..> 19-Mar-2011 00:50 184K
chaina mobile nokia ..> 19-Mar-2011 00:49 37K
chaina_mobile_nokia_..> 19-Mar-2011 00:50 36K
chainamobilenokian58..> 19-Mar-2011 00:50 94K
china repair.jpg 19-Mar-2011 00:50 30K
china1600insetsimsol..> 19-Mar-2011 00:50 72K
china20repairing20di..> 19-Mar-2011 00:50 144K
china6300insertsimso..> 19-Mar-2011 00:50 66K
china6300warninginva..> 19-Mar-2011 00:50 38K
china6300warninginva..> 19-Mar-2011 00:50 256K
china6300warninginva..> 19-Mar-2011 00:50 256K
chinabluetoothfmlowb..> 19-Mar-2011 00:50 130K
chinaled.jpg 19-Mar-2011 00:51 54K
chinaphonegtideg19ch..> 19-Mar-2011 00:51 352K
chinaphonesflashb.jpg 19-Mar-2011 00:51 24K
chinaroria1100ringer..> 19-Mar-2011 00:51 322K
chinasim.jpg 19-Mar-2011 00:51 39K
chinese phones with ..> 19-Mar-2011 00:51 39K
egltelv100chargingso..> 19-Mar-2011 00:51 358K
es4y1scopy.jpg 19-Mar-2011 00:51 176K
gfive u800 handsfree..> 19-Mar-2011 00:51 72K
gfivef2batterylowsol..> 19-Mar-2011 00:51 23K
hantel10.jpg 19-Mar-2011 00:51 40K
hantelpowerway.jpg 19-Mar-2011 00:52 119K
i mobile_200_pin out..> 19-Mar-2011 00:52 31K
keywo.jpg 19-Mar-2011 00:52 20K
m6islamicphonedispla..> 19-Mar-2011 00:52 56K
maximusex60nonet.jpg 19-Mar-2011 00:52 23K
maximusex75pcbfullbo..> 19-Mar-2011 00:52 107K
maximusitelringer.jpg 19-Mar-2011 00:52 115K
micf.jpg 19-Mar-2011 00:52 145K
mobilen18chargingsol..> 19-Mar-2011 00:52 354K
mtchargeways.jpg 19-Mar-2011 00:52 29K
mtk6305sim.jpg 19-Mar-2011 00:52 46K
n73 pin out.JPG 19-Mar-2011 00:52 32K
n77insertsimsolution..> 19-Mar-2011 00:52 148K
network.jpg 19-Mar-2011 00:52 50K
newbenqsiemense61mic..> 19-Mar-2011 00:52 564K
nktel_a200_handfre....> 19-Mar-2011 00:52 56K
nktela200charging.jpg 19-Mar-2011 00:53 124K
nktela200handfreemod..> 19-Mar-2011 00:53 51K
nktela200handfreemod..> 19-Mar-2011 00:53 53K
nktelbtpajumper.jpg 19-Mar-2011 00:53 258K
nokia 1200 mic way.png 19-Mar-2011 00:53 276K
rf3146sendshutdown.jpg 19-Mar-2011 00:53 270K
s3handfreexx1.jpg 19-Mar-2011 00:53 78K
s3headset3.jpg 19-Mar-2011 00:53 15K
s3headsetq.jpg 19-Mar-2011 00:53 99K
s560buzzerproblem.jpg 19-Mar-2011 00:53 20K
sigmatel s2 showing ..> 19-Mar-2011 00:53 33K
sprint7700batterylow..> 19-Mar-2011 00:54 183K
sprint7700micnotwork..> 19-Mar-2011 00:54 161K
t33handsfreesolution..> 19-Mar-2011 00:54 938K
t99 buzzer problem.jpg 19-Mar-2011 00:54 24K
t99buzzerproblem.jpg 19-Mar-2011 00:54 21K
t99handsfreesolution..> 19-Mar-2011 00:54 761K
t99headfonesolution1..> 19-Mar-2011 00:54 90K
trickforhowtofindout..> 19-Mar-2011 00:54 48K
u800 hf solulation 1..> 19-Mar-2011 00:54 45K
u800headsetsolution.jpg 19-Mar-2011 00:54 48K
u800u808headset100so..> 19-Mar-2011 00:54 51K
ztczt6668.jpg 19-Mar-2011 00:54 75K

filed under:

Leave a reply

Share it

Related Posts Plugin for WordPress, Blogger...
Copyright © 2009-2011 Mobile Repairing Guide.